| time (UTC) | temp F | wind direction | speed knots | gust knots | rain 1hr in | rain 24hr in | rain mn in | humidity % | barometer mb |
| 20260906220503 | 97 | 112 | 7.0 | 10.4 | 0.00 | 0.00 | 0.00 | 37 | 1006.3 |
| 20260906220006 | 97 | 135 | 7.0 | 9.6 | 0.00 | 0.00 | 0.00 | 37 | 1006.3 |
| 20260906215503 | 96 | 135 | 7.8 | 9.6 | 0.00 | 0.00 | 0.00 | 38 | 1006.3 |
| 20260906214002 | 97 | 157 | 9.6 | 13.9 | 0.00 | 0.00 | 0.00 | 36 | 1006.3 |
| 20260906212005 | 97 | 157 | 9.6 | 11.3 | 0.00 | 0.00 | 0.00 | 36 | 1007.0 |
| 20260906210503 | 95 | 90 | 7.0 | 9.6 | 0.00 | 0.00 | 0.00 | 38 | 1007.3 |
| 20260906204504 | 96 | 90 | 11.3 | 13.9 | 0.00 | 0.00 | 0.00 | 39 | 1007.7 |
| 20260906203504 | 96 | 90 | 13.0 | 16.5 | 0.00 | 0.00 | 0.00 | 38 | 1007.7 |
| 20260906203007 | 97 | 135 | 8.7 | 10.4 | 0.00 | 0.00 | 0.00 | 37 | 1007.7 |
| 20260906202505 | 96 | 157 | 12.2 | 15.6 | 0.00 | 0.00 | 0.00 | 38 | 1008.0 |
| 20260906202002 | 95 | 112 | 5.2 | 6.1 | 0.00 | 0.00 | 0.00 | 38 | 1008.0 |
| 20260906201505 | 95 | 67 | 13.0 | 16.5 | 0.00 | 0.00 | 0.00 | 38 | 1007.7 |
| 20260906200003 | 96 | 135 | 8.7 | 11.3 | 0.00 | 0.00 | 0.00 | 38 | 1008.3 |
| 20260906195004 | 95 | 90 | 12.2 | 15.6 | 0.00 | 0.00 | 0.00 | 38 | 1008.3 |
| 20260906193005 | 95 | 67 | 11.3 | 15.6 | 0.00 | 0.00 | 0.00 | 37 | 1008.3 |
| 20260906192509 | 95 | 67 | 14.8 | 19.1 | 0.00 | 0.00 | 0.00 | 39 | 1008.7 |
| 20260906191509 | 94 | 112 | 13.0 | 16.5 | 0.00 | 0.00 | 0.00 | 39 | 1008.3 |
| 20260906191031 | 95 | 90 | 10.4 | 14.8 | 0.00 | 0.00 | 0.00 | 38 | 1008.3 |
| 20260906185508 | 94 | 90 | 9.6 | 12.2 | 0.00 | 0.00 | 0.00 | 40 | 1008.7 |
| 20260906184507 | 95 | 67 | 8.7 | 11.3 | 0.00 | 0.00 | 0.00 | 41 | 1009.0 |
| 20260906184004 | 95 | 135 | 9.6 | 17.4 | 0.00 | 0.00 | 0.00 | 41 | 1009.0 |
| 20260906183507 | 94 | 112 | 10.4 | 14.8 | 0.00 | 0.00 | 0.00 | 42 | 1009.0 |
| 20260906182502 | 94 | 67 | 13.9 | 16.5 | 0.00 | 0.00 | 0.00 | 43 | 1009.4 |
| 20260906180006 | 94 | 67 | 11.3 | 14.8 | 0.00 | 0.00 | 0.00 | 43 | 1009.7 |
| 20260906175007 | 94 | 112 | 11.3 | 15.6 | 0.00 | 0.00 | 0.00 | 44 | 1009.7 |
| 20260906174505 | 94 | 135 | 8.7 | 10.4 | 0.00 | 0.00 | 0.00 | 44 | 1010.0 |
| 20260906172506 | 92 | 90 | 7.8 | 10.4 | 0.00 | 0.00 | 0.00 | 47 | 1010.4 |
| 20260906172003 | 92 | 67 | 9.6 | 13.9 | 0.00 | 0.00 | 0.00 | 47 | 1010.4 |
| 20260906171507 | 92 | 112 | 9.6 | 13.0 | 0.00 | 0.00 | 0.00 | 46 | 1010.0 |
| 20260906171004 | 93 | 112 | 7.8 | 13.0 | 0.00 | 0.00 | 0.00 | 46 | 1010.0 |
| 20260906165005 | 93 | 112 | 7.0 | 11.3 | 0.00 | 0.00 | 0.00 | 46 | 1010.7 |
| 20260906164502 | 91 | 112 | 7.0 | 12.2 | 0.00 | 0.00 | 0.00 | 49 | 1010.4 |
| 20260906163508 | 91 | 67 | 8.7 | 10.4 | 0.00 | 0.00 | 0.00 | 49 | 1010.4 |
| 20260906163006 | 92 | 90 | 7.8 | 10.4 | 0.00 | 0.00 | 0.00 | 46 | 1010.4 |
| 20260906161503 | 91 | 112 | 5.2 | 8.7 | 0.00 | 0.00 | 0.00 | 50 | 1010.4 |
| 20260906160006 | 92 | 67 | 7.0 | 7.8 | 0.00 | 0.00 | 0.00 | 50 | 1010.4 |
| 20260906155008 | 91 | 157 | 7.8 | 10.4 | 0.00 | 0.00 | 0.00 | 51 | 1010.4 |
| 20260906153504 | 91 | 135 | 4.3 | 6.1 | 0.00 | 0.00 | 0.00 | 52 | 1010.4 |
| 20260906153007 | 90 | 67 | 5.2 | 8.7 | 0.00 | 0.00 | 0.00 | 52 | 1010.4 |
| 20260906152504 | 91 | 112 | 6.1 | 7.8 | 0.00 | 0.00 | 0.00 | 54 | 1010.0 |
| 20260906114503 | 76 | 157 | 0.9 | 1.7 | 0.00 | 0.00 | 0.00 | 91 | 1013.8 |
| 20260906113503 | 76 | 157 | 1.7 | 2.6 | 0.00 | 0.00 | 0.00 | 90 | 1013.8 |
| 20260906113032 | 77 | 157 | 2.6 | 2.6 | 0.00 | 0.00 | 0.00 | 89 | 1013.8 |
| 20260906112003 | 77 | 157 | 1.7 | 2.6 | 0.00 | 0.00 | 0.00 | 89 | 1013.4 |
| 20260906111506 | 77 | 157 | 2.6 | 3.5 | 0.00 | 0.00 | 0.00 | 90 | 1013.4 |
| 20260906111005 | 77 | 157 | 2.6 | 2.6 | 0.00 | 0.00 | 0.00 | 89 | 1013.4 |
| 20260906110507 | 77 | 157 | 2.6 | 2.6 | 0.00 | 0.00 | 0.00 | 90 | 1013.4 |
| 20260906110004 | 77 | 157 | 1.7 | 2.6 | 0.00 | 0.00 | 0.00 | 89 | 1013.4 |
| 20260906104507 | 76 | 157 | 2.6 | 3.5 | 0.00 | 0.00 | 0.00 | 89 | 1013.1 |
| 20260906103005 | 77 | 157 | 0.0 | 0.0 | 0.00 | 0.00 | 0.00 | 87 | 1013.1 |
| 20260906102508 | 77 | 157 | 0.0 | 0.0 | 0.00 | 0.00 | 0.00 | 88 | 1013.1 |
| 20260906101007 | 78 | 157 | 0.0 | 0.0 | 0.00 | 0.00 | 0.00 | 87 | 1012.7 |
| 20260906094504 | 77 | 157 | 0.0 | 0.0 | 0.00 | 0.00 | 0.00 | 87 | 1012.7 |
| 20260906092531 | 78 | 180 | 0.0 | 0.0 | 0.00 | 0.00 | 0.00 | 86 | 1012.4 |
| 20260906085506 | 78 | 180 | 0.9 | 1.7 | 0.00 | 0.00 | 0.00 | 81 | 1012.4 |
| 20260906085003 | 78 | 180 | 0.9 | 1.7 | 0.00 | 0.00 | 0.00 | 81 | 1012.4 |
| 20260906084506 | 78 | 180 | 0.0 | 0.0 | 0.00 | 0.00 | 0.00 | 80 | 1012.4 |
| 20260906084003 | 79 | 180 | 1.7 | 2.6 | 0.00 | 0.00 | 0.00 | 80 | 1012.4 |
| 20260906082003 | 79 | 180 | 1.7 | 2.6 | 0.00 | 0.00 | 0.00 | 79 | 1011.7 |
| 20260906081507 | 79 | 180 | 1.7 | 2.6 | 0.00 | 0.00 | 0.00 | 79 | 1011.7 |
| 20260906080507 | 79 | 180 | 0.9 | 1.7 | 0.00 | 0.00 | 0.00 | 78 | 1011.7 |
| 20260906080005 | 79 | 180 | 0.9 | 1.7 | 0.00 | 0.00 | 0.00 | 77 | 1011.7 |
| 20260906074008 | 79 | 157 | 2.6 | 3.5 | 0.00 | 0.00 | 0.00 | 76 | 1012.1 |
| 20260906072029 | 80 | 157 | 0.0 | 0.9 | 0.00 | 0.00 | 0.00 | 76 | 1012.1 |
| 20260906070508 | 80 | 157 | 0.0 | 0.0 | 0.00 | 0.00 | 0.00 | 75 | 1012.1 |
| 20260906070005 | 80 | 157 | 1.7 | 2.6 | 0.00 | 0.00 | 0.00 | 74 | 1012.1 |
| 20260906065508 | 80 | 157 | 0.0 | 0.0 | 0.00 | 0.00 | 0.00 | 74 | 1012.1 |
| 20260906065006 | 81 | 157 | 2.6 | 3.5 | 0.00 | 0.00 | 0.00 | 73 | 1012.1 |
| 20260906063505 | 81 | 157 | 2.6 | 3.5 | 0.00 | 0.00 | 0.00 | 72 | 1011.7 |
| 20260906062011 | 81 | 157 | 2.6 | 3.5 | 0.00 | 0.00 | 0.00 | 70 | 1011.7 |
| 20260906061507 | 81 | 157 | 1.7 | 2.6 | 0.00 | 0.00 | 0.00 | 70 | 1011.7 |
| 20260906061005 | 82 | 157 | 2.6 | 3.5 | 0.00 | 0.00 | 0.00 | 69 | 1011.7 |
| 20260906055008 | 82 | 157 | 3.5 | 4.3 | 0.00 | 0.00 | 0.00 | 68 | 1011.7 |
| 20260906054505 | 82 | 157 | 3.5 | 4.3 | 0.00 | 0.00 | 0.00 | 67 | 1011.7 |
| 20260906053004 | 83 | 157 | 5.2 | 7.0 | 0.00 | 0.00 | 0.00 | 68 | 1011.7 |
| 20260906051005 | 83 | 157 | 2.6 | 4.3 | 0.00 | 0.00 | 0.00 | 65 | 1011.7 |
| 20260906050508 | 83 | 157 | 3.5 | 3.5 | 0.00 | 0.00 | 0.00 | 64 | 1011.7 |
| 20260906045503 | 84 | 157 | 3.5 | 4.3 | 0.00 | 0.00 | 0.00 | 65 | 1011.4 |
| 20260906044503 | 84 | 157 | 3.5 | 4.3 | 0.00 | 0.00 | 0.00 | 64 | 1011.4 |
| 20260906044006 | 84 | 157 | 3.5 | 4.3 | 0.00 | 0.00 | 0.00 | 63 | 1011.4 |
| 20260906043008 | 84 | 157 | 3.5 | 4.3 | 0.00 | 0.00 | 0.00 | 63 | 1011.4 |
| 20260906042003 | 85 | 157 | 2.6 | 3.5 | 0.00 | 0.00 | 0.00 | 62 | 1011.4 |
| 20260906035506 | 85 | 157 | 5.2 | 7.0 | 0.00 | 0.00 | 0.00 | 62 | 1011.0 |
| 20260906034506 | 86 | 157 | 4.3 | 5.2 | 0.00 | 0.00 | 0.00 | 61 | 1011.0 |
| 20260906033507 | 86 | 180 | 6.1 | 7.8 | 0.00 | 0.00 | 0.00 | 60 | 1011.0 |
| 20260906033005 | 86 | 157 | 6.1 | 7.0 | 0.00 | 0.00 | 0.00 | 59 | 1011.0 |
| 20260906030509 | 87 | 135 | 6.1 | 8.7 | 0.00 | 0.00 | 0.00 | 56 | 1010.7 |
| 20260906030005 | 87 | 180 | 5.2 | 8.7 | 0.00 | 0.00 | 0.00 | 56 | 1010.7 |
| 20260906023505 | 88 | 135 | 7.8 | 12.2 | 0.00 | 0.00 | 0.00 | 53 | 1009.7 |
| 20260906023008 | 89 | 157 | 7.0 | 11.3 | 0.00 | 0.00 | 0.00 | 51 | 1009.7 |
| 20260906022505 | 89 | 157 | 7.0 | 8.7 | 0.00 | 0.00 | 0.00 | 49 | 1009.4 |
| 20260906022010 | 90 | 157 | 7.8 | 10.4 | 0.00 | 0.00 | 0.00 | 47 | 1009.4 |
| 20260906020003 | 91 | 112 | 7.0 | 8.7 | 0.00 | 0.00 | 0.00 | 43 | 1009.0 |
| 20260906014003 | 91 | 112 | 5.2 | 6.1 | 0.00 | 0.00 | 0.00 | 42 | 1008.7 |
| 20260906011503 | 91 | 135 | 4.3 | 5.2 | 0.00 | 0.00 | 0.00 | 42 | 1008.0 |
| 20260906011007 | 92 | 112 | 2.6 | 3.5 | 0.00 | 0.00 | 0.00 | 41 | 1008.0 |
| 20260906005504 | 92 | 112 | 5.2 | 7.0 | 0.00 | 0.00 | 0.00 | 40 | 1007.7 |
| 20260906004504 | 93 | 135 | 5.2 | 7.8 | 0.00 | 0.00 | 0.00 | 39 | 1007.3 |
| 20260906004007 | 94 | 112 | 4.3 | 7.0 | 0.00 | 0.00 | 0.00 | 38 | 1007.3 |
| 20260906003504 | 94 | 157 | 4.3 | 7.8 | 0.00 | 0.00 | 0.00 | 38 | 1007.0 |
| 20260906002505 | 94 | 112 | 6.1 | 8.7 | 0.00 | 0.00 | 0.00 | 38 | 1007.0 |
| 20260906001505 | 95 | 135 | 5.2 | 7.0 | 0.00 | 0.00 | 0.00 | 36 | 1007.0 |
| 20260906001008 | 96 | 135 | 5.2 | 7.8 | 0.00 | 0.00 | 0.00 | 36 | 1007.0 |
| 20260905231006 | 97 | 90 | 5.2 | 8.7 | 0.00 | 0.00 | 0.00 | 34 | 1005.6 |
| 20260905230504 | 98 | 157 | 6.1 | 7.8 | 0.00 | 0.00 | 0.00 | 34 | 1005.6 |
| 20260905224506 | 99 | 180 | 6.1 | 7.8 | 0.00 | 0.00 | 0.00 | 33 | 1005.6 |
| 20260905223507 | 98 | 112 | 6.1 | 7.8 | 0.00 | 0.00 | 0.00 | 34 | 1005.6 |
| 20260905223005 | 97 | 315 | 4.3 | 7.0 | 0.00 | 0.00 | 0.00 | 34 | 1005.6 |
| 20260905222508 | 98 | 112 | 3.5 | 5.2 | 0.00 | 0.00 | 0.00 | 34 | 1005.6 |
| 20260905222005 | 98 | 135 | 6.1 | 7.8 | 0.00 | 0.00 | 0.00 | 34 | 1005.6 |
| 20260905221509 | 98 | 157 | 7.0 | 9.6 | 0.00 | 0.00 | 0.00 | 34 | 1005.6 |